Snowfall_Accumulation
0.0 0.0 0.0 0.0 0.0 0.0 0.0 0.0 11.7 0.0 0.0 9.1 10.2 16.0 8.6 0.6 0.0 0.0 1.1 0.7 0.5 0.2 0.0 0.1 0.0 0.0 0.0 0.0 0.0 0.0 0.0 0.0 0.0 0.0 0.0 0.0 0.0 0.0 0.0 0.4 0.0 0.0 0.0 0.7
0.0 0.0 0.0 0.0 0.0 0.0 0.0 3.8 6.1 0.0 0.0 21.3 20.2 7.2 8.8 2.8 1.8 1.2 1.0 0.7 0.0 0.0 0.2 0.4 0.1 0.0 0.0 0.0 0.0 0.0 0.0 0.0 1.1 0.9 0.0 0.0 0.0 0.0 0.0 0.0 0.0 0.0 0.0 0.0
0.0 0.0 0.0 0.0 0.0 0.0 0.0 3.6 20.8 5.3 0.0 2.0 2.3 6.0 8.7 6.8 0.0 0.8 0.0 1.0 0.0 1.4 1.7 0.0 0.5 0.1 0.0 0.0 0.0 0.0 0.0 0.0 0.0 0.1 0.0 0.0 0.0 0.0 0.0 0.0 0.0 0.0 0.0 0.0
0.0 0.0 0.0 0.0 0.0 0.0 0.0 9.1 12.1 0.0 14.1 7.6 1.2 1.4 2.3 3.9 4.4 1.2 0.0 1.5 0.7 0.8 5.1 3.3 1.1 0.1 0.0 0.0 0.0 0.0 0.0 0.2 0.2 0.4 0.0 0.0 0.0 0.0 0.0 0.0 0.0 0.1 0.0 0.0
0.0 0.0 0.0 0.0 0.0 0.0 0.0 15.2 6.4 0.3 0.3 0.2 1.6 0.7 4.9 1.4 1.4 1.8 1.7 1.0 0.0 0.0 2.1 1.0 1.7 0.2 0.0 0.0 0.0 0.0 0.0 1.2 0.4 1.4 0.5 0.5 0.3 0.0 0.0 0.0 0.0 0.0 0.0 0.0
0.0 0.0 0.0 0.0 0.0 0.0 3.0 0.0 0.0 0.5 1.7 0.9 1.1 1.7 1.6 1.1 0.4 0.8 0.0 0.2 0.5 0.7 0.6 0.0 0.0 0.0 0.0 0.0 0.1 0.3 0.4 1.6 1.7 3.8 1.7 1.9 2.3 0.1 0.0 0.0 0.0 0.0 0.0 0.0
0.0 0.0 0.0 0.0 0.0 0.0 0.0 0.0 0.0 3.4 8.4 1.9 1.4 0.4 0.2 0.6 0.3 1.0 0.0 0.0 0.2 0.0 0.0 0.0 0.0 0.0 0.0 0.0 0.0 0.0 1.0 1.7 5.5 8.6 4.0 7.5 0.2 0.0 0.0 0.0 0.0 0.0 0.1 0.0
0.0 0.0 0.0 0.0 0.0 0.0 0.0 0.0 0.0 1.7 7.7 1.4 1.4 0.9 1.4 0.6 0.2 0.4 0.2 0.0 0.0 0.0 0.0 2.6 11.5 14.3 9.8 7.5 4.0 0.8 0.0 1.2 8.0 9.2 6.2 1.8 0.0 0.0 0.0 0.0 0.0 0.0 0.0 0.0
0.0 0.0 0.0 0.0 0.0 0.0 0.0 0.0 0.0 0.5 3.1 3.4 0.0 0.9 0.0 1.8 3.4 4.6 2.6 0.0 0.0 0.0 1.3 7.1 13.9 13.0 6.7 6.3 3.9 1.6 1.6 1.1 6.9 12.5 7.6 3.3 0.0 0.0 0.0 0.0 0.0 0.0 0.0 0.0
0.0 0.0 0.0 0.0 0.0 0.0 0.0 0.0 0.0 0.0 4.2 0.3 0.0 0.5 1.6 0.0 0.0 2.9 1.5 1.1 3.1 0.0 2.7 10.5 11.0 8.1 1.5 2.0 0.6 2.8 3.8 4.7 6.6 8.6 5.8 1.2 0.0 0.0 0.0 0.0 0.0 0.0 0.0 0.0
0.0 0.0 0.0 0.0 0.0 0.0 0.0 0.0 0.0 0.0 4.4 0.4 0.0 0.0 0.0 0.2 0.0 1.7 2.0 1.8 2.0 4.3 5.1 6.1 5.9 6.2 3.1 0.5 0.2 0.1 0.3 1.2 2.8 3.9 4.2 1.2 0.0 0.0 0.0 0.0 0.0 0.0 0.0 0.0
0.0 0.0 0.0 0.0 0.0 0.0 0.0 0.0 0.0 0.0 0.0 0.9 0.0 0.0 0.0 0.0 0.0 0.0 0.0 0.1 0.0 0.3 2.4 2.9 1.8 1.4 1.7 1.0 1.2 0.1 0.2 0.0 0.0 0.0 0.1 0.0 0.0 0.0 0.0 0.0 0.0 0.0 0.0 0.0
0.0 0.0 0.0 0.0 0.0 0.0 0.0 0.0 0.0 0.0 6.4 1.1 0.0 0.0 0.0 0.0 0.0 0.0 0.1 0.0 0.0 0.0 0.0 0.6 0.0 1.3 0.6 0.7 0.4 0.1 0.0 0.0 0.0 0.0 0.0 0.0 0.0 0.0 0.0 0.0 0.0 0.0 0.0 0.0
0.0 0.0 0.0 0.0 0.0 0.0 0.0 0.0 0.0 0.0 0.0 6.9 5.4 0.0 0.0 0.0 0.0 0.0 0.0 0.0 0.0 0.0 0.0 0.0 0.1 1.2 0.1 0.4 0.0 0.0 0.1 0.0 0.1 0.0 0.0 0.0 0.0 0.0 0.0 0.0 0.0 0.0 0.0 0.0
0.0 0.0 0.0 0.0 0.0 0.0 0.0 0.0 0.0 0.0 0.0 4.3 7.0 0.0 0.0 0.0 0.0 0.0 0.0 0.0 0.0 0.0 0.2 0.9 1.2 0.8 0.7 0.5 0.2 0.2 0.0 0.0 0.0 0.0 0.0 0.0 0.0 0.0 0.0 0.0 0.0 0.0 0.0 0.0
0.0 0.0 0.0 0.0 0.0 0.0 0.0 0.8 0.0 0.0 0.0 0.1 5.8 2.1 0.4 0.0 0.0 0.0 0.0 0.0 0.0 0.0 0.2 0.6 0.2 0.0 0.0 0.2 0.8 0.0 0.0 0.0 0.0 0.0 0.0 0.0 0.0 0.0 0.0 0.0 0.0 0.0 0.0 0.0
0.0 0.0 0.0 0.0 0.0 0.0 0.0 1.4 0.0 0.0 0.0 0.2 2.4 5.6 2.9 0.0 0.0 0.0 1.9 0.8 2.3 2.5 2.0 1.6 0.8 0.3 0.1 0.2 0.0 0.0 0.0 0.0 0.0 0.0 0.0 0.0 0.0 0.0 0.0 0.0 0.0 0.0 0.0 0.0
0.0 0.0 0.0 0.0 0.0 0.0 0.0 0.0 0.0 0.0 0.0 0.0 1.3 5.0 3.1 0.0 2.0 3.3 1.0 1.9 0.8 0.9 1.5 1.2 1.2 0.9 0.7 0.4 0.0 0.0 0.0 0.0 0.0 0.0 0.0 0.0 0.0 0.0 0.0 0.0 0.0 0.0 0.0 0.0
0.0 0.0 0.0 0.0 0.0 0.6 0.0 0.0 0.0 0.0 0.0 0.7 0.8 1.7 4.7 0.7 0.5 0.5 0.3 0.1 0.8 0.0 0.6 0.8 0.6 0.7 0.2 0.0 0.0 0.0 0.0 0.0 0.0 0.0 0.0 0.0 0.0 0.0 0.0 0.0 0.0 0.0 0.0 0.5
0.0 0.0 0.2 2.1 0.0 0.0 0.0 0.0 0.0 0.0 0.0 0.4 1.9 0.4 2.2 1.1 0.8 0.8 0.9 0.4 0.8 1.6 1.4 0.4 0.7 0.0 0.0 0.0 0.0 0.0 0.0 0.0 0.0 0.0 0.0 0.0 0.0 0.0 0.0 0.0 0.0 1.0 1.0 0.3
0.0 0.0 1.1 0.0 0.0 0.0 0.0 0.1 0.0 0.0 0.1 0.8 1.7 1.3 1.3 0.5 0.8 0.5 0.1 0.5 0.3 0.7 0.9 0.1 0.5 0.2 0.0 0.0 0.0 0.1 0.0 0.0 0.0 0.0 0.0 0.0 0.0 0.0 0.0 0.2 0.8 1.2 0.9 0.5
0.0 0.0 0.0 0.0 0.0 0.0 0.0 0.0 0.1 0.0 0.5 0.1 0.6 0.5 0.3 0.0 0.0 0.3 0.1 0.2 0.1 1.0 0.0 0.4 0.2 0.1 0.0 0.0 0.2 0.3 0.1 0.3 0.5 0.3 0.6 0.3 0.2 0.2 0.7 0.7 0.2 0.1 0.1 0.3
0.0 0.0 0.0 0.0 0.0 0.0 0.4 0.8 0.2 0.6 0.0 0.0 0.0 0.1 0.0 0.0 0.0 0.1 0.1 0.0 0.4 0.0 0.3 0.1 0.1 0.2 0.1 0.0 0.3 0.4 0.6 1.2 1.6 1.5 1.5 1.9 0.8 0.3 0.0 0.1 0.1 0.1 0.0 0.0
0.0 0.0 0.0 0.0 0.4 1.2 1.0 0.8 0.5 0.0 0.0 0.0 0.0 0.0 0.0 0.0 0.1 0.1 0.2 0.1 0.2 0.4 0.5 0.2 0.2 0.0 0.0 0.0 0.1 0.0 0.0 0.0 0.0 0.1 0.0 0.0 0.0 0.0 0.0 0.0 0.0 0.0 0.0 0.1
0.0 0.0 0.7 1.0 0.0 0.0 0.0 0.0 0.0 0.0 0.0 0.1 0.1 0.0 0.0 0.0 0.0 0.0 0.0 0.0 0.1 0.2 1.2 0.4 0.0 0.0 0.0 0.0 0.0 0.0 0.0 0.0 0.0 0.0 0.0 0.0 0.0 0.0 0.0 0.0 0.0 0.0 0.0 0.0
0.0 0.0 0.2 0.0 0.0 0.0 0.0 0.0 0.0 0.0 0.0 0.0 0.0 0.1 0.1 0.0 0.0 0.0 0.0 0.2 0.2 0.9 0.4 0.0 0.0 0.1 0.0 0.0 0.0 0.0 0.0 0.0 0.0 0.0 0.0 0.0 0.0 0.0 0.0 0.0 0.0 0.0 0.0 0.0
0.0 0.1 0.0 0.0 0.0 0.0 0.0 0.0 0.0 0.0 0.0 0.7 0.1 0.0 0.2 0.0 0.1 0.0 0.0 0.1 0.3 0.0 0.0 0.0 0.0 0.0 0.0 0.0 0.0 0.0 0.0 0.0 0.0 0.0 0.0 0.0 0.0 0.0 0.0 0.0 0.0 0.0 0.0 0.0